Location: Amon Carter Post Office
(32.8281°N, 97.0484°W)
Time: 16:09:00
(UTC+00:00)

Meteor 2-15 Rocket - Pass Details

Date: 08 July 2022
Orbit: 939 x 956 km, 82.5° (Epoch: 13 August)

Event Time Altitude Azimuth Distance (km) Brightness Sun altitude
Rises 09:11:54 0° 17° (NNE) 3,635 8.6 -23.0°
Reaches altitude 10° 09:16:03 10° 44° (NE) 2,681 7.9 -22.4°
Maximum altitude 09:18:47 13° 71° (ENE) 2,453 7.4 -22.1°
Drops below altitude 10° 09:21:31 10° 97° (E) 2,670 7.2 -21.7°
Sets 09:25:35 0° 124° (SE) 3,607 7.6 -21.1°
